This is the latest recevied weather packets stored in our database for station/object KGPT. If no packets are shown the sender has not sent any weather packets the latest 1 day(s).
| Time | Temp. | Humidity | Pressure | Rain* | Wind** | Luminosity | Snow |
|---|---|---|---|---|---|---|---|
| 1778103811 | 25.56° C | 88% | 1012.5 hPa | - | - | - | - |
| 1778103212 | 25.56° C | 88% | 1012.5 hPa | - | - | - | - |
| 1778099013 | 25.56° C | 88% | 1013.2 hPa | - | - | - | - |
| 1778097214 | 25.56° C | 88% | 1013.2 hPa | - | - | - | - |
| 1778096612 | 25.56° C | 88% | 1013.2 hPa | - | - | - | - |
| 1778094811 | 23.89° C | 100% | 1013.9 hPa | - | - | - | - |
| 1778093613 | 25.56° C | 83% | 1014.2 hPa | - | - | - | - |
| 1778092415 | 25.56° C | 83% | 1014.2 hPa | - | - | - | - |
| 1778087615 | 25° C | 88% | 1014.9 hPa | - | - | - | - |
| 1778083536 | 25° C | 88% | 1014.6 hPa | - | - | - | - |
| 1778082818 | 23.89° C | 94% | 1014.2 hPa | - | - | - | - |
| 1778080413 | 23.89° C | 94% | 1014.2 hPa | - | - | - | - |
| 1778079814 | 23.89° C | 94% | 1014.2 hPa | - | - | - | - |
| 1778078613 | 23.89° C | 88% | 1013.5 hPa | - | - | - | - |
| 1778076810 | 23.89° C | 88% | 1013.5 hPa | - | - | - | - |
| 1778075611 | 23.89° C | 88% | 1013.5 hPa | - | - | - | - |
| 1778073212 | 23.89° C | 88% | 1013.2 hPa | - | - | - | - |
| 1778072613 | 23.89° C | 88% | 1013.2 hPa | - | - | - | - |
| 1778071412 | 22.78° C | 94% | 1013.2 hPa | - | - | - | - |
| 1778070212 | 22.78° C | 94% | 1012.9 hPa | - | - | - | - |
| 1778069611 | 22.78° C | 94% | 1012.9 hPa | - | - | - | - |
| 1778067811 | 22.78° C | 94% | 1012.9 hPa | - | - | - | - |
| 1778067209 | 22.78° C | 94% | 1012.2 hPa | - | - | - | - |
| 1778066614 | 22.78° C | 94% | 1012.2 hPa | - | - | - | - |
| 1778066013 | 22.78° C | 94% | 1012.2 hPa | - | - | - | - |
* Rain since midnight (hover to see other rain measurements)
** Current wind speed in m/s (hover to see current wind gust speed)